Location: Asheville, NC
(35.6000°N, 82.5500°W)
Time: 19:17:31
(UTC-04:00)

XW-2D - Pass Details

Date: 13 February 2018
Orbit: 509 x 531 km, 97.5° (Epoch: 27 May)

Event Time Altitude Azimuth Distance (km) Brightness Sun altitude
Rises 18:34:26 0° 196° (SSW) 2,621 ? -5.6°
Reaches altitude 10° 18:36:54 10° 213° (SSW) 1,735 ? -6.1°
Maximum altitude 18:39:49 22° 264° (W) 1,172 ? -6.7°
Drops below altitude 10° 18:42:45 10° 316° (NW) 1,736 ? -7.3°
Sets 18:45:12 0° 332° (NNW) 2,624 ? -7.7°
